Overview Statistics Trail Chart Weather Telemetry Raw packets
 

This is the latest recevied weather packets stored in our database for station/object KD8DNS. If no packets are shown the sender has not sent any weather packets the latest 10 day(s).

<< 58 59 60 61 62 63 64 >>
Time Temp. Humidity Pressure Rain* Wind** Luminosity Snow
1788273698 30° C 70% 1021.9 hPa 0 mm - 425 W/m² -
1788273394 30° C 72% 1022.1 hPa 0 mm - 434 W/m² -
1788273090 30° C 72% 1022 hPa 0 mm - 385 W/m² -
1788272786 29.44° C 73% 1022.2 hPa 0 mm - 364 W/m² -
1788272485 29.44° C 74% 1022.1 hPa 0 mm - 364 W/m² -
1788272180 29.44° C 75% 1022 hPa 0 mm - 361 W/m² -
1788271875 28.89° C 75% 1022 hPa 0 mm - 360 W/m² -
1788271574 28.89° C 77% 1022.1 hPa 0 mm - 334 W/m² -
1788271273 28.33° C 78% 1022.2 hPa 0 mm - 389 W/m² -
1788270973 27.78° C 78% 1022 hPa 0 mm - 373 W/m² -
1788270685 27.78° C 79% 1022.1 hPa 0 mm - 346 W/m² -
1788270364 27.22° C 81% 1021.9 hPa 0 mm - 336 W/m² -
1788270059 26.67° C 82% 1022 hPa 0 mm - 286 W/m² -
1788269757 26.67° C 84% 1021.9 hPa 0 mm - 273 W/m² -
1788269456 26.11° C 85% 1021.8 hPa 0 mm - 249 W/m² -
1788269150 25.56° C 86% 1022 hPa 0 mm - 248 W/m² -
1788268844 25° C 88% 1022.2 hPa 0 mm - 227 W/m² -
1788268539 23.89° C 90% 1022.2 hPa 0 mm - 205 W/m² -
1788268234 23.89° C 92% 1022.4 hPa 0 mm - 105 W/m² -
1788267934 23.33° C 93% 1022.4 hPa 0 mm - 95 W/m² -
1788267632 23.33° C 93% 1022.1 hPa 0 mm - 71 W/m² -
1788267348 23.33° C 92% 1022.2 hPa 0 mm - 42 W/m² -
1788267027 23.33° C 92% 1022.4 hPa 0 mm - 29 W/m² -
1788266721 23.33° C 92% 1022.4 hPa 0 mm - 31 W/m² -
1788266421 23.33° C 92% 1022.2 hPa 0 mm - 50 W/m² -

* Rain latest hour (hover to see other rain measurements)
** Current wind speed in m/s (hover to see current wind gust speed)